Regional Weather Roundup
Issued by NWS

Home | Current Version | Previous Version | Text Only | Print | Product List | Glossary On
Versions: 1 2 3 4 5 6 7 8 9 10 11 12 13 14 15 16 17 18 19 20 21 22 23 24 25 26 27 28 29 30 31 32 33 34 35 36 37 38 39 40 41 42 43 44 45 46 47 48 49 50
000
ASUS44 KFWD 282315
RWRTX
NORTH TEXAS HOURLY WEATHER ROUNDUP
NATIONAL WEATHER SERVICE FORT WORTH TX
600 PM CDT SUN AUG 28 2016

NOTE: "FAIR" INDICATES FEW OR NO CLOUDS BELOW 12,000 FEET WITH NO
SIGNIFICANT WEATHER AND/OR OBSTRUCTIONS TO VISIBILITY.

TXZ118-119-290000-
DALLAS/FORT WORTH METROPLEX

CITY           SKY/WX    TMP DP  RH WIND       PRES   REMARKS
DFW AIRPORT    MOSUNNY   90  64  42 E12       29.96F HX  91
DALLAS LOVE    MOSUNNY   90  67  46 E13       29.97F HX  93
FTW MEACHAM    SUNNY     91  63  39 E14       29.96F HX  92
DAL-EXECUTIVE  SUNNY     89  67  47 SE10      29.97F HX  92
FTW-ALLIANCE   MOSUNNY   89  64  43 E14       29.96F HX  90
FTW-NAS-JRB    SUNNY     90  62  39 SE14G22   29.96F HX  90
FTW-SPINKS     MOSUNNY   88  66  48 E12G21    29.98F HX  90
ARLINGTON      SUNNY     88  67  49 E12       29.97F HX  91
GRAND PRAIRIE  MOSUNNY   90  64  43 E12G17    29.99F HX  91
ADDISON        MOSUNNY   88  68  51 E9G17     29.98F HX  91
MESQUITE       SUNNY     90  64  43 E8        29.97F HX  91
LANCASTER      SUNNY     91  66  43 E9        29.98F HX  93
$$

TXZ091>094-102>105-117-120-121-131>134-290000-
NORTH CENTRAL TEXAS

CITY           SKY/WX    TMP DP  RH WIND       PRES   REMARKS
SHRMAN/DENISON SUNNY     89  69  50 E9        30.00S HX  93
GAINESVILLE      N/A     88  67  48 SE13      30.00S HX  91
BOWIE          SUNNY     89  67  47 SE6       29.98F HX  92
BRIDGEPORT     SUNNY     89  69  51 SE6       29.98F HX  92
DECATUR        MOSUNNY   88  64  45 E10G16    29.98F
DENTON         SUNNY     89  67  47 SE13      29.96F HX  92
MCKINNEY       MOSUNNY   88  65  46 E9        29.98S HX  90
GREENVILLE     SUNNY     88  66  48 E7        29.98F HX  90
ROCKWALL       HAZE      88  68  51 E9G17     29.97S VSB<1/4 HX  91
TERRELL        SUNNY     88  68  51 E8        29.98F HX  91
WAXAHACHIE     MOSUNNY   86  71  59 E7        29.98F HX  91
CLEBURNE       SUNNY     88  70  55 E13G18    29.99F HX  92
GRANBURY       MOSUNNY   91  65  43 E14G21    29.97F HX  92
$$

TXZ083>090-098>101-113>116-127>130-139>142-154-155-290000-
WESTERN NORTH TEXAS

CITY           SKY/WX    TMP DP  RH WIND       PRES   REMARKS
WICHITA FALLS  SUNNY     91  65  41 S13G25    29.96F HX  93
WF-KICKAPOO    SUNNY     92  63  37 SE9G20    29.98S HX  93
VERNON         MOSUNNY   91  58  33 SE12      29.99R HX  90
ABILENE        CLOUDY    83  72  69 SE9       30.00F
ABILENE-DYESS  MOSUNNY   84  68  58 SE9       29.98F
BRECKENRIDGE   MOSUNNY   89  65  43 E10       29.96F HX  91
GRAHAM         SUNNY     90  67  47 E10       29.96F HX  92
MINERAL WELLS  SUNNY     89  66  46 SE13      29.95F HX  91
STEPHENVILLE   MOSUNNY   86  64  47 E8        30.00F
COMANCHE       MOSUNNY   88  66  47 E12       29.98F HX  90
BROWNWOOD      SUNNY     88  64  45 E14       29.97F
COLEMAN        MOSUNNY   86  63  46 E10       29.99S
$$

TXZ143>147-156>162-174-175-290000-
CENTRAL TEXAS

CITY           SKY/WX    TMP DP  RH WIND       PRES   REMARKS
WACO           MOSUNNY   88  71  57 E12       29.95F HX  94
WACO-MCGREGOR  MOSUNNY   88  71  57 NE10      29.95F HX  94
HILLSBORO      MOSUNNY   86  69  57 E10       29.97S
CORSICANA      MOSUNNY   88  71  57 E8        29.97F HX  94
MEXIA          SUNNY     85  71  64 NE7       29.96S HX  90
HEARNE         CLOUDY    79  72  77 MISG      29.97S
CAMERON        CLOUDY    81  71  72 SE12G23   29.96R
TEMPLE         MOSUNNY   87  72  60 E12       29.95F HX  93
KILLEEN        MOSUNNY   84  69  61 E13       29.95S
KILLEEN-SKYLRK PTSUNNY   86  70  58 E13       29.95F HX  90
FORT HOOD      MOSUNNY   86  71  59 E10       29.93F HX  91
GATESVILLE     SUNNY     84  70  61 E7        29.98S
HAMILTON       MOSUNNY   86  69  58 E12G17    29.99F HX  90
LAMPASAS       SUNNY     87  73  61 E9        29.96S HX  94
$$

TXZ095>097-106>112-122>126-135>138-148>153-164>167-290000-
EAST TEXAS

CITY           SKY/WX    TMP DP  RH WIND       PRES   REMARKS
PARIS          MOSUNNY   88  72  58 S12       30.01R HX  94
SULPHUR SPRNGS CLOUDY    89  69  51 E12       30.01S HX  92
MOUNT PLEASANT CLOUDY    77  71  84 NE3       30.02S
GILMER         CLOUDY    81  72  74 NE7       30.00S THUNDER
TYLER          CLOUDY    85  72  65 SE7       29.98S HX  91
LONGVIEW       CLOUDY    79  74  84 E12       29.99R
MARSHALL       CLOUDY    73  69  89 SE9       30.04R
ATHENS         MOSUNNY   86  70  58 NE7       29.95F HX  90
PALESTINE      MOSUNNY   87  74  64 E8        29.96F HX  95
JACKSONVILLE   MOSUNNY   86  74  67 E7        29.99F HX  94
HENDERSON      TSTM      73  70  91 NE9       30.01R VSB 3/4
CENTER         LGT RAIN  74  73  95 S5        30.02S
NACOGDOCHES    CLOUDY   N/A N/A N/A E5        29.97R
LUFKIN         LGT RAIN  72  71  97 E7        29.96F
$$

SUPPLEMENTAL OBSERVATIONS (CENTRAL)

CITY           SKY/WX    TMP DP  RH WIND       PRES   REMARKS
DENISON DAM      N/A     88  66  48 SE7         N/A  HX  90
CADDO GRASSLND   N/A     90  72  55 E3          N/A  HX  96
PAT MAYSE LAKE   N/A     90  68  48 NE5         N/A  HX  93
GREENVILLE       N/A     90  73  58 E7          N/A  HX  98
CEDAR HILL       N/A     90  68  48 E3G12       N/A  HX  93
ATHENS           N/A     86  72  62 E6G21       N/A  HX  92
LAKE LIMESTONE   N/A     81  70  69 E8G16       N/A
MCGREGOR         N/A     88  72  58 E9          N/A  HX  94
TEMPLE           N/A     86  70  58 E14         N/A  HX  90
$$

SUPPLEMENTAL OBSERVATIONS (WEST)

CITY           SKY/WX    TMP DP  RH WIND       PRES   REMARKS
MILLERS CREEK    N/A     90  66  45 SE12        N/A  HX  92
POSSUM KINGDOM   N/A     90  66  45 E9          N/A  HX  92
LBJ GRASSLAND    N/A     88  68  51 E6          N/A  HX  91
GRANBURY         N/A     90  66  45 E15         N/A  HX  92
COMANCHE         N/A     88  66  48 E13         N/A  HX  90
HAMBY            N/A     88  68  51 SE10        N/A  HX  91
IVIE RESERVOIR   N/A     88  66  48 E2G14       N/A  HX  90
COLORADO BEND    N/A     86  66  51 SE9         N/A
$$

SUPPLEMENTAL OBSERVATIONS (EAST)

CITY           SKY/WX    TMP DP  RH WIND       PRES   REMARKS
CLARKSVILLE      N/A     73  70  88 E9G25       N/A
CADDO LAKE       N/A     75  72  88 CALM        N/A
GILMER           N/A     82  72  69 E5          N/A
HENDERSON        N/A     73  70  88 NE7G33      N/A
N SABINE NF      N/A     73  70  88 MISG        N/A
S SABINE NF      N/A     73  72  94 W1          N/A
$$

SUPPLEMENTAL OBSERVATIONS ARE A COLLECTION OF AUTOMATED INSTRUMENTS
THAT ARE MAINTAINED BY A VARIETY OF FEDERAL AND STATE AGENCIES.
CERTAIN ELEMENTS...SUCH AS HUMIDITY VALUES AND SUSTAINED WIND
SPEEDS...MAY BE APPROXIMATED.




USA.gov is the U.S. government's official web portal to all federal, state and local government web resources and services.